Wetbulb
58.91 59.02 59.56 60.04 60.33 60.54 60.70 60.98 60.97 60.74 61.01 61.23 61.24 61.01 61.15 61.15 61.32 61.51 61.70 61.82 61.74 60.79 60.55 60.00 59.18 59.00 55.03 49.51 47.82 54.27 60.64 56.75 55.14 53.86 50.81 49.23 45.99 45.46 41.90 41.95 44.32 41.68 42.84 44.78 45.26 44.20 43.34
59.56 59.54 59.38 59.72 60.16 60.46 60.62 60.72 60.95 60.94 60.90 61.08 61.29 61.17 61.14 61.07 61.14 61.14 61.30 61.52 61.37 60.30 60.16 59.20 58.44 57.93 51.41 45.65 53.26 54.04 53.22 52.48 52.30 51.74 49.52 49.27 46.60 47.43 44.07 43.05 42.33 43.09 43.92 43.19 43.43 43.99 44.39
59.63 59.74 59.91 59.88 60.16 60.48 60.54 60.68 60.91 60.97 61.11 60.93 60.97 61.04 60.74 60.63 60.79 60.97 61.02 61.19 61.12 59.99 59.27 59.08 58.31 54.04 49.19 47.30 52.40 52.24 52.55 50.15 51.18 51.14 49.01 50.12 49.69 46.93 44.85 42.33 44.42 44.03 40.84 40.93 41.72 43.13 42.52
59.67 59.85 59.84 60.11 60.26 60.84 60.93 61.02 60.94 60.95 60.79 60.90 60.99 60.73 60.41 60.25 60.31 60.36 60.24 60.48 60.13 59.46 57.94 58.37 58.27 51.60 45.77 52.94 50.31 52.42 52.25 50.34 51.72 52.57 51.61 51.06 50.09 47.95 45.79 45.26 43.90 40.57 40.13 36.94 41.01 42.15 43.04
59.67 59.87 60.20 60.25 60.47 60.63 60.93 61.00 60.96 60.90 60.99 61.03 60.71 60.31 60.09 59.98 59.90 59.71 59.59 59.93 59.90 59.06 58.08 58.20 51.61 49.11 45.37 54.26 49.51 50.92 51.06 49.54 50.60 51.26 50.42 51.22 48.73 45.37 45.24 42.30 39.06 39.43 33.95 36.23 39.09 42.04 41.24
60.11 60.11 60.67 60.97 60.73 60.67 60.69 60.88 60.83 60.75 60.76 60.46 60.09 59.66 59.57 59.49 59.45 59.32 59.39 59.43 59.31 56.80 56.99 55.48 53.39 46.43 46.05 45.73 48.71 49.82 50.90 50.51 48.75 48.00 48.47 47.61 44.89 41.55 40.67 39.50 34.30 35.03 33.78 36.58 35.40 38.95 39.17
60.86 60.82 61.15 61.07 61.19 61.12 60.79 61.01 60.82 60.70 60.45 59.94 59.68 59.26 59.22 59.28 59.32 59.32 57.68 54.90 50.16 50.50 50.73 47.68 48.29 47.59 46.41 49.05 50.02 49.39 51.26 49.59 48.40 45.21 41.51 44.18 40.49 36.93 39.59 38.41 38.97 38.22 35.12 34.21 37.65 39.25 37.23
60.69 61.21 61.62 61.42 61.35 61.24 61.19 61.09 60.83 60.53 60.26 59.81 59.37 58.97 59.12 59.25 59.35 59.13 55.14 49.44 47.95 48.72 43.50 50.25 49.90 49.04 48.10 48.08 45.02 47.56 51.05 45.85 44.88 42.23 43.27 41.41 38.23 40.24 41.71 40.77 39.02 37.23 34.31 34.60 37.91 39.05 37.38
58.93 59.28 59.97 60.25 60.10 59.92 60.73 60.99 60.81 60.59 60.23 59.62 59.01 58.75 58.85 58.94 58.75 57.08 51.13 49.63 52.81 51.12 42.24 47.67 49.31 46.77 45.80 47.36 44.54 46.03 48.07 45.81 43.32 41.52 41.45 38.82 39.95 42.37 41.27 38.18 37.85 36.06 34.54 34.77 34.99 37.24 37.45
55.92 56.65 57.35 57.77 58.15 58.28 59.03 60.04 60.36 60.40 59.76 58.79 58.65 58.79 58.71 58.54 55.87 55.49 50.27 53.16 53.24 51.09 37.66 40.49 45.30 45.50 46.89 47.39 42.82 49.14 48.92 45.55 42.83 41.10 41.91 39.63 41.39 40.32 38.06 38.41 39.18 33.48 37.10 37.02 36.04 30.83 25.89
54.29 54.33 54.62 55.43 55.42 55.74 56.90 57.87 58.31 58.79 58.98 58.30 58.46 58.95 58.44 58.68 54.40 53.02 53.33 53.42 52.24 48.35 21.40 41.90 43.59 49.46 47.63 43.64 44.67 45.54 48.53 45.28 41.82 41.80 40.81 38.46 37.92 37.40 37.30 38.68 40.64 36.21 38.29 36.07 34.47 28.16 26.66
52.84 54.29 53.77 53.99 53.79 53.78 54.24 55.51 56.02 55.66 55.29 55.38 56.39 57.39 57.83 56.51 55.12 56.26 54.59 52.37 49.88 36.90 25.21 38.90 43.46 42.21 41.80 43.37 44.00 45.71 45.75 45.71 44.82 41.70 40.40 39.73 41.22 40.39 39.86 39.41 39.15 39.16 35.84 34.53 31.25 27.69 21.10
52.19 51.64 52.79 52.64 52.88 53.35 53.66 54.51 54.77 53.96 53.20 52.92 53.28 56.00 56.97 58.22 52.03 54.57 53.15 49.96 35.60 30.39 41.74 39.47 39.81 41.48 40.56 40.04 40.58 42.76 41.49 39.46 37.45 33.13 33.27 38.23 38.29 39.07 40.71 36.65 37.91 36.23 31.88 24.75 22.28 22.92 23.70
51.81 51.83 50.93 51.87 52.21 52.21 53.43 53.35 52.82 52.39 51.91 51.63 52.28 54.71 55.87 56.78 57.48 54.16 51.79 42.66 31.27 35.86 39.23 43.10 42.30 41.51 38.30 41.17 40.60 41.36 39.27 37.32 40.92 38.76 34.72 31.54 30.34 36.45 39.08 37.94 34.94 32.94 32.68 26.82 18.91 22.07 25.31
52.03 51.72 51.29 51.08 51.98 52.47 51.66 52.10 51.82 51.70 51.51 51.29 52.16 52.48 52.00 54.99 57.41 54.13 49.43 36.73 31.04 36.71 41.94 41.01 40.35 36.71 36.91 40.11 39.78 39.23 37.54 37.72 40.48 41.75 35.75 33.02 33.19 38.05 38.45 38.18 38.21 33.05 28.68 33.69 28.44 26.92 20.87
51.19 51.19 51.47 51.45 50.77 50.56 51.00 51.31 51.16 51.30 51.03 50.89 44.79 47.83 51.61 52.24 57.09 52.53 44.43 38.33 38.49 43.82 43.78 43.25 36.86 38.93 35.15 37.94 37.22 36.97 37.04 40.58 41.01 43.35 42.71 38.37 31.71 35.84 36.49 37.75 36.12 33.61 35.03 27.60 27.13 20.47 19.93
51.71 51.43 50.88 51.47 51.30 50.49 50.18 50.38 50.95 51.01 50.74 50.51 45.58 44.12 48.78 51.58 54.52 47.96 38.65 38.71 41.88 45.52 45.34 42.39 38.77 38.17 39.03 38.40 38.28 37.14 37.80 41.10 42.77 41.70 43.18 39.49 36.11 30.37 34.15 32.14 31.57 30.56 29.60 30.23 31.21 29.77 24.77
51.88 51.80 51.68 51.62 51.44 50.94 50.59 50.22 50.27 51.14 50.63 48.63 43.64 38.43 47.90 49.86 44.59 44.48 40.49 42.45 44.75 44.20 46.38 44.13 43.36 41.84 39.82 40.88 40.30 39.57 37.60 41.82 43.99 43.15 39.01 41.03 36.67 28.78 30.14 35.50 36.91 34.01 34.24 33.98 28.97 27.53 27.01
51.47 51.26 51.65 51.81 51.72 51.22 50.99 50.47 50.20 50.00 50.10 46.60 40.34 39.67 46.75 47.11 35.34 40.24 43.48 43.72 44.72 44.11 43.76 43.26 42.05 43.47 44.33 41.10 37.74 40.97 42.51 47.02 45.10 42.53 39.61 40.02 35.49 27.79 29.33 30.59 33.11 32.16 32.99 34.63 33.57 31.31 29.15
50.89 51.02 51.19 51.39 51.84 51.46 51.25 50.73 50.33 49.78 50.65 46.43 39.51 33.08 38.54 41.60 38.05 33.85 34.04 36.03 39.14 40.65 41.36 39.18 41.38 43.04 42.70 41.71 43.65 40.73 41.81 44.76 42.00 44.89 46.05 43.36 38.16 33.44 32.28 32.40 32.92 28.43 31.33 34.66 34.19 28.72 30.28
50.74 50.48 50.52 50.93 51.25 51.49 51.37 50.61 50.36 50.05 49.96 45.07 39.17 34.66 36.64 31.62 33.34 32.30 32.59 31.99 32.55 33.21 36.98 37.32 36.84 34.98 33.95 34.24 39.33 40.48 41.64 43.58 40.11 40.86 40.94 41.02 34.44 37.32 37.93 39.16 36.03 33.58 32.85 33.32 32.29 33.41 30.48
50.20 49.82 50.12 50.30 50.73 51.17 51.09 50.75 50.47 50.26 49.40 42.53 36.24 35.46 37.03 35.22 34.06 32.71 32.58 31.90 32.33 33.88 33.32 33.84 32.53 32.82 32.24 31.63 31.68 30.32 32.86 33.71 32.54 35.82 36.59 37.60 33.52 36.16 34.63 38.30 37.15 34.25 35.21 33.16 34.53 35.13 35.11
49.53 49.78 49.51 49.82 50.16 50.56 51.28 50.88 50.63 50.33 48.18 41.01 42.30 42.69 38.60 35.43 33.92 32.65 32.24 33.33 33.66 34.27 35.52 35.60 33.84 33.16 31.63 33.44 35.60 37.69 36.69 36.78 35.21 33.10 33.41 32.06 31.35 30.15 29.15 33.95 32.89 28.38 33.32 35.86 36.54 36.56 35.69
49.21 49.14 49.18 49.16 49.43 50.02 50.69 50.51 50.54 50.29 48.75 42.68 42.52 41.21 35.41 30.61 32.87 32.26 33.97 34.60 33.97 34.06 32.63 35.09 35.89 33.20 37.14 40.05 38.37 38.08 37.58 36.45 36.13 35.92 36.29 32.12 31.86 31.06 26.40 28.51 20.65 28.35 31.01 35.94 36.20 38.01 38.80
48.73 48.69 48.77 48.85 48.84 49.26 49.70 50.10 50.14 50.25 50.11 44.02 43.02 39.44 34.33 29.50 33.79 34.17 33.83 34.56 35.68 36.32 35.09 34.46 36.30 37.91 40.50 36.56 30.38 28.66 29.88 31.30 32.31 33.70 34.22 35.11 32.14 28.27 24.62 24.52 28.39 30.58 31.54 28.98 29.60 28.65 34.84
48.02 47.77 48.30 48.27 48.46 48.79 49.24 49.68 49.75 49.88 50.01 46.18 43.42 42.89 37.45 31.74 30.28 34.87 32.77 34.02 30.25 29.72 31.02 34.44 38.44 39.84 38.49 33.15 29.93 22.59 21.75 26.56 25.50 28.02 33.94 34.19 34.42 29.82 27.18 22.12 19.87 24.55 28.21 32.87 33.00 25.10 32.41
47.34 47.78 48.12 48.43 48.49 48.80 48.55 48.80 49.14 49.44 49.61 47.25 43.46 43.24 37.60 31.41 33.99 34.65 31.53 31.69 34.74 32.94 29.66 32.51 34.39 34.55 37.65 30.27 25.40 23.13 22.87 30.22 24.35 24.87 23.73 28.62 28.96 25.75 25.86 24.52 27.32 33.81 34.52 33.57 23.48 24.88 33.11
46.75 47.12 47.54 47.84 47.85 47.75 47.87 48.36 48.57 48.99 49.14 46.98 43.35 43.72 39.86 33.04 35.43 36.02 36.87 33.54 33.28 33.47 28.77 33.97 31.00 32.45 31.14 27.36 26.51 24.72 25.81 26.49 27.17 28.82 26.87 24.91 24.29 23.87 26.58 23.79 21.02 33.14 31.76 27.65 31.52 32.69 33.29
46.17 46.59 47.02 47.08 47.22 47.20 47.39 47.73 48.10 48.38 48.66 47.94 39.53 43.68 40.98 34.01 32.66 38.59 38.16 37.83 36.70 36.92 34.23 34.00 29.89 30.61 32.17 25.92 24.65 23.70 22.67 24.22 23.68 20.11 29.81 25.15 28.78 26.57 27.14 25.90 32.57 35.04 32.61 34.50 34.54 33.51 33.41
MSLP
1022.15 1021.97 1021.83 1021.87 1021.85 1021.83 1021.78 1021.67 1021.59 1021.46 1021.25 1020.86 1020.69 1020.41 1020.06 1019.80 1019.35 1018.89 1018.50 1018.11 1017.64 1017.17 1016.82 1016.56 1016.33 1016.17 1016.09 1016.16 1016.40 1016.03 1015.81 1015.48 1015.02 1014.97 1014.92 1014.73 1014.36 1014.52 1014.66 1014.73 1014.82 1014.93 1015.32 1015.61 1015.72 1015.76 1015.89
1022.08 1022.01 1021.86 1021.86 1021.73 1021.69 1021.72 1021.67 1021.68 1021.48 1021.22 1021.01 1020.70 1020.38 1020.08 1019.68 1019.09 1018.61 1018.25 1017.88 1017.46 1017.04 1016.69 1016.47 1016.19 1016.03 1016.15 1016.53 1016.30 1016.09 1015.95 1015.67 1015.51 1015.26 1015.07 1014.90 1014.83 1014.54 1014.65 1014.89 1015.18 1015.27 1015.32 1015.44 1015.67 1015.84 1015.79
1021.70 1021.84 1021.93 1021.81 1021.71 1021.56 1021.49 1021.64 1021.58 1021.49 1021.26 1020.98 1020.66 1020.36 1020.01 1019.49 1018.97 1018.44 1017.94 1017.58 1017.17 1016.81 1016.57 1016.42 1016.22 1015.93 1015.99 1016.41 1016.14 1016.00 1015.94 1015.80 1015.76 1015.71 1015.38 1015.22 1015.00 1014.90 1014.76 1015.08 1015.22 1015.43 1015.74 1015.75 1015.77 1015.82 1015.94
1021.50 1021.70 1021.62 1021.82 1021.52 1021.43 1021.46 1021.39 1021.49 1021.44 1021.21 1020.93 1020.69 1020.33 1019.90 1019.53 1018.99 1018.32 1017.66 1017.18 1016.72 1016.49 1016.35 1016.31 1016.28 1015.97 1016.05 1016.01 1016.07 1016.04 1015.92 1015.80 1015.70 1015.72 1015.67 1015.37 1015.19 1015.04 1015.05 1015.42 1015.58 1015.82 1015.94 1016.11 1015.77 1015.81 1015.98
1021.15 1021.26 1021.54 1021.58 1021.71 1021.43 1021.25 1021.22 1021.21 1021.15 1021.16 1021.00 1020.73 1020.36 1019.96 1019.54 1018.93 1018.23 1017.33 1016.62 1016.10 1016.01 1016.23 1016.19 1016.25 1016.19 1016.28 1016.14 1016.09 1016.08 1015.98 1016.23 1016.03 1015.84 1015.76 1015.47 1015.40 1015.43 1015.57 1015.84 1016.32 1016.27 1016.31 1016.18 1016.06 1016.06 1016.30
1020.76 1020.85 1021.06 1021.27 1021.28 1021.45 1021.38 1021.07 1021.03 1021.01 1020.89 1020.92 1020.75 1020.44 1019.98 1019.39 1018.87 1018.09 1017.04 1016.15 1015.76 1015.94 1016.06 1016.14 1016.07 1016.55 1016.46 1016.36 1016.24 1016.21 1016.08 1016.09 1016.03 1016.08 1016.01 1015.87 1015.83 1015.93 1016.20 1016.38 1016.79 1016.51 1016.51 1016.39 1016.45 1016.65 1016.69
1020.43 1020.43 1020.60 1020.69 1020.99 1021.09 1021.12 1021.17 1020.97 1020.78 1020.78 1020.69 1020.65 1020.41 1019.92 1019.47 1018.72 1018.00 1017.29 1016.40 1017.00 1017.04 1016.94 1017.06 1016.91 1016.70 1016.52 1016.44 1016.34 1016.33 1016.15 1016.19 1016.01 1016.24 1016.56 1016.18 1016.56 1016.52 1016.40 1016.49 1016.59 1016.78 1017.03 1017.16 1016.89 1017.03 1017.17
1019.98 1019.92 1020.12 1020.23 1020.45 1020.60 1020.81 1020.82 1020.90 1020.76 1020.68 1020.74 1020.58 1020.33 1019.93 1019.34 1018.76 1018.13 1017.77 1018.71 1019.69 1019.90 1018.58 1016.95 1016.87 1016.95 1016.77 1016.81 1016.62 1016.31 1016.23 1016.38 1016.11 1016.13 1016.23 1016.69 1016.62 1016.54 1016.62 1016.65 1016.92 1017.23 1017.57 1017.74 1017.62 1017.76 1017.92
1019.73 1019.80 1019.89 1019.92 1020.15 1020.12 1020.25 1020.48 1020.67 1020.47 1020.55 1020.54 1020.58 1020.38 1020.07 1019.41 1018.77 1018.31 1018.83 1019.58 1019.59 1019.66 1019.48 1017.34 1016.94 1016.90 1016.99 1017.06 1016.68 1016.50 1016.40 1016.16 1016.10 1016.17 1016.34 1017.00 1017.14 1016.83 1016.94 1017.24 1017.46 1017.73 1018.03 1018.22 1018.62 1018.66 1018.53
1020.11 1020.02 1019.75 1019.90 1020.19 1020.24 1019.83 1019.81 1020.12 1020.49 1020.30 1020.35 1020.22 1020.31 1020.06 1019.57 1019.10 1019.15 1019.21 1019.44 1019.41 1019.62 1019.52 1017.78 1017.14 1017.01 1016.98 1016.94 1016.85 1016.59 1016.51 1016.58 1016.23 1016.05 1016.21 1016.83 1017.10 1017.32 1017.48 1017.59 1017.69 1018.32 1018.50 1019.04 1019.58 1020.41 1020.31
1020.55 1020.31 1020.28 1020.09 1020.03 1020.34 1020.20 1019.88 1019.92 1020.00 1020.10 1020.17 1020.08 1019.83 1020.04 1019.92 1020.27 1019.69 1019.33 1019.22 1019.32 1019.76 1019.43 1017.59 1017.06 1017.01 1016.87 1017.13 1016.95 1016.70 1016.68 1016.61 1016.58 1016.34 1016.54 1016.64 1017.12 1017.53 1018.00 1018.05 1018.02 1018.81 1019.07 1019.86 1020.64 1021.42 1021.87
1020.93 1020.75 1020.48 1020.44 1020.42 1020.39 1020.18 1019.92 1019.93 1020.34 1020.38 1020.15 1020.09 1019.87 1019.69 1019.77 1020.25 1019.77 1019.32 1019.25 1019.62 1019.91 1018.83 1017.31 1017.10 1016.93 1016.98 1016.98 1016.69 1016.75 1016.86 1016.93 1016.80 1016.84 1016.82 1016.98 1017.12 1017.28 1017.31 1017.86 1018.33 1019.26 1020.05 1020.88 1021.81 1022.70 1022.80
1021.04 1021.08 1020.94 1020.76 1020.58 1020.48 1020.05 1020.16 1020.01 1020.06 1020.44 1020.53 1020.30 1020.09 1019.85 1019.66 1019.75 1019.31 1019.50 1019.79 1020.31 1019.16 1017.50 1017.04 1016.81 1016.84 1016.78 1016.67 1016.68 1016.83 1016.88 1016.90 1016.92 1017.27 1017.58 1017.56 1017.57 1017.47 1017.61 1018.25 1018.84 1019.25 1020.39 1021.68 1022.58 1023.01 1021.81
1021.19 1021.02 1021.11 1020.99 1020.73 1020.43 1020.10 1020.24 1020.35 1020.23 1020.30 1020.43 1020.39 1020.22 1019.85 1019.54 1019.26 1019.47 1019.60 1020.39 1019.83 1018.06 1016.85 1015.90 1015.81 1016.29 1016.68 1016.26 1016.21 1016.52 1016.86 1016.91 1016.51 1016.73 1017.37 1017.74 1017.69 1017.53 1017.62 1017.71 1018.35 1019.38 1019.98 1020.67 1021.40 1021.89 1021.15
1020.92 1021.00 1020.99 1021.03 1020.94 1020.61 1020.34 1020.27 1020.35 1020.36 1020.32 1020.26 1020.21 1020.28 1020.10 1019.11 1019.30 1019.63 1020.07 1019.59 1018.34 1017.57 1016.48 1015.96 1016.02 1016.02 1015.94 1015.83 1015.98 1016.19 1016.45 1016.23 1015.62 1015.69 1016.40 1016.70 1016.97 1017.03 1017.54 1017.67 1018.31 1019.62 1019.92 1019.65 1020.41 1020.74 1020.69
1020.54 1020.80 1020.83 1020.93 1020.94 1020.81 1020.57 1020.41 1020.31 1020.33 1020.39 1020.25 1020.41 1020.40 1019.78 1019.52 1019.07 1019.56 1019.38 1017.83 1017.21 1016.53 1015.90 1015.88 1016.16 1015.83 1015.78 1015.48 1015.82 1016.17 1015.59 1014.52 1014.59 1014.31 1014.42 1015.17 1016.38 1017.11 1017.70 1017.98 1018.48 1018.69 1019.15 1019.87 1020.59 1020.99 1019.95
1020.07 1020.28 1020.59 1020.61 1020.64 1020.75 1020.70 1020.54 1020.47 1020.22 1020.26 1020.28 1020.43 1020.38 1019.89 1019.51 1019.22 1019.11 1017.36 1016.97 1016.62 1016.25 1016.12 1016.13 1015.82 1016.04 1015.87 1015.61 1015.21 1015.19 1014.65 1013.98 1013.43 1013.53 1014.14 1015.04 1015.84 1017.71 1017.94 1017.70 1017.45 1018.76 1018.72 1019.14 1019.32 1019.41 1018.92
1019.01 1019.49 1019.80 1020.06 1020.30 1020.44 1020.60 1020.59 1020.54 1020.29 1020.24 1020.18 1020.65 1020.36 1019.89 1019.89 1019.14 1017.75 1016.68 1016.57 1016.26 1016.06 1015.93 1015.92 1015.90 1015.90 1015.68 1015.77 1015.22 1014.77 1013.76 1013.37 1013.22 1013.48 1014.14 1014.50 1015.43 1016.41 1016.11 1016.05 1016.17 1016.39 1016.23 1016.96 1017.98 1017.79 1017.41
1018.42 1018.67 1019.05 1019.38 1019.68 1019.89 1020.13 1020.37 1020.43 1020.32 1020.26 1020.37 1020.71 1020.63 1019.77 1019.90 1019.26 1018.10 1017.25 1016.42 1016.32 1016.27 1015.98 1015.97 1015.74 1015.56 1015.96 1015.21 1015.15 1014.10 1013.29 1013.16 1013.31 1013.70 1013.86 1014.73 1015.57 1016.48 1016.04 1016.59 1016.47 1016.03 1015.77 1015.66 1015.92 1016.13 1015.20
1017.97 1018.27 1018.54 1018.85 1019.00 1019.39 1019.64 1020.07 1020.20 1020.15 1020.21 1020.61 1020.99 1021.14 1020.78 1020.42 1020.48 1020.27 1019.30 1018.34 1017.32 1017.25 1016.88 1016.84 1016.36 1016.22 1016.20 1015.14 1015.01 1012.99 1012.97 1013.46 1013.30 1013.22 1013.75 1014.01 1014.72 1014.71 1013.59 1013.21 1013.65 1015.16 1014.77 1014.42 1014.71 1014.53 1013.91
1017.44 1017.63 1018.07 1018.34 1018.46 1018.77 1019.26 1019.66 1019.96 1019.97 1020.43 1020.84 1021.20 1021.19 1021.54 1021.28 1021.23 1020.95 1020.80 1020.07 1019.43 1019.13 1018.69 1018.48 1018.25 1018.43 1018.07 1016.69 1015.52 1014.52 1014.39 1014.03 1014.41 1015.10 1015.06 1014.49 1014.59 1014.64 1012.81 1012.46 1013.19 1012.89 1012.69 1012.95 1012.75 1011.51 1012.33
1016.93 1017.04 1017.51 1017.85 1017.98 1018.14 1018.61 1019.18 1019.56 1019.83 1020.35 1020.76 1021.36 1021.39 1021.61 1021.74 1021.49 1021.44 1021.10 1020.66 1020.29 1020.45 1020.40 1020.01 1019.87 1019.68 1019.37 1019.17 1018.77 1018.14 1017.85 1017.27 1016.80 1016.68 1016.29 1015.93 1014.16 1014.03 1013.43 1012.66 1012.93 1012.98 1012.22 1011.71 1011.44 1011.10 1010.68
1016.46 1016.78 1017.02 1017.25 1017.42 1017.72 1018.06 1018.62 1019.18 1019.57 1020.15 1020.64 1021.10 1021.25 1021.37 1021.42 1021.58 1021.41 1021.02 1020.77 1020.58 1020.87 1020.78 1020.70 1020.75 1020.44 1020.04 1019.99 1019.90 1019.36 1019.06 1018.77 1018.44 1018.42 1017.74 1017.18 1016.04 1014.97 1013.38 1013.31 1013.39 1012.89 1010.75 1011.35 1011.02 1010.71 1010.63
1015.90 1016.40 1016.60 1016.69 1017.04 1017.39 1017.67 1018.06 1018.51 1018.89 1019.55 1020.20 1020.65 1021.11 1021.40 1021.09 1021.11 1020.87 1020.56 1020.58 1020.54 1020.68 1020.82 1020.85 1020.76 1020.68 1020.46 1020.07 1019.85 1019.35 1019.04 1018.65 1018.39 1018.04 1018.02 1017.61 1017.00 1016.14 1014.88 1014.28 1013.27 1011.10 1010.56 1010.04 1009.92 1009.96 1010.31
1015.44 1015.89 1016.14 1016.33 1016.61 1016.98 1017.29 1017.61 1017.90 1018.47 1019.02 1019.71 1020.23 1020.91 1021.33 1020.98 1020.61 1020.47 1020.38 1020.31 1020.39 1020.41 1020.38 1020.66 1020.51 1020.26 1020.35 1020.33 1020.27 1019.44 1018.68 1018.15 1017.25 1016.58 1016.88 1016.90 1016.94 1016.13 1015.58 1014.38 1012.62 1011.32 1010.76 1010.50 1010.21 1010.05 1009.86
1015.04 1015.32 1015.75 1015.96 1016.36 1016.64 1016.89 1017.12 1017.38 1017.78 1018.38 1019.17 1019.61 1020.11 1020.95 1021.09 1020.24 1019.42 1019.70 1019.68 1020.18 1020.32 1020.40 1020.34 1019.97 1019.93 1020.35 1020.40 1020.45 1019.85 1018.88 1018.19 1017.49 1016.54 1015.99 1016.26 1016.44 1016.22 1015.24 1014.08 1013.00 1011.75 1011.01 1010.41 1010.30 1010.14 1009.60
1014.46 1014.91 1015.14 1015.45 1015.60 1016.05 1016.37 1016.67 1017.08 1017.41 1017.67 1018.39 1018.86 1019.16 1020.38 1020.65 1019.87 1019.45 1019.44 1019.20 1019.21 1019.95 1020.25 1020.07 1020.18 1020.28 1020.27 1020.13 1020.09 1019.67 1018.89 1018.06 1017.51 1016.71 1016.46 1016.34 1016.12 1015.33 1014.98 1013.90 1012.89 1012.10 1011.26 1010.91 1011.30 1010.26 1009.43
1013.93 1014.26 1014.77 1015.01 1015.34 1015.63 1015.97 1016.19 1016.47 1016.80 1017.19 1018.00 1018.30 1018.63 1019.12 1019.68 1019.58 1019.34 1019.16 1019.03 1019.02 1019.44 1019.86 1020.23 1020.55 1020.30 1020.34 1020.40 1020.10 1019.33 1018.66 1017.90 1017.37 1017.03 1016.69 1016.33 1015.85 1015.03 1014.55 1013.73 1012.84 1012.34 1011.69 1011.58 1010.66 1009.67 1009.43
1013.69 1013.95 1014.19 1014.61 1014.96 1015.28 1015.52 1015.77 1015.89 1016.27 1016.55 1017.24 1018.43 1018.54 1018.84 1019.88 1019.77 1019.16 1019.04 1018.58 1018.48 1018.53 1019.36 1019.89 1019.65 1019.75 1019.99 1020.50 1020.48 1020.09 1019.73 1018.95 1018.48 1017.72 1016.49 1016.23 1015.69 1015.58 1014.92 1013.69 1012.92 1012.53 1012.37 1011.69 1011.45 1010.82 1010.09
Wind_Speed
3 0 2 2 4 5 6 7 7 9 11 11 12 14 14 15 16 17 17 17 18 15 11 8 6 8 2 0 1 5 10 10 5 5 2 3 3 2 4 3 2 4 4 3 4 3 3
5 4 2 1 2 4 5 6 7 7 9 11 12 13 14 15 17 17 18 18 19 15 10 8 7 5 1 1 3 6 8 6 6 5 4 5 1 2 4 3 3 1 3 2 3 3 2
6 5 5 3 3 3 3 5 6 7 8 11 13 13 14 16 18 20 20 19 18 14 9 8 8 2 3 2 2 5 7 2 4 4 1 2 2 1 2 3 3 3 2 0 3 2 2
7 8 6 7 4 3 4 4 5 7 9 10 11 13 14 16 18 20 22 21 17 11 8 7 7 2 1 1 1 3 6 3 4 3 3 3 4 1 2 2 2 1 1 1 3 1 2
8 7 7 7 8 6 4 4 5 5 7 8 9 11 12 15 17 20 23 23 15 7 6 7 3 0 1 0 1 1 2 2 6 4 4 3 2 2 3 4 5 2 2 3 2 3 1
10 9 8 7 7 8 8 5 4 5 5 6 8 10 12 14 16 20 25 19 2 4 1 3 3 3 0 1 1 2 1 2 3 5 6 3 3 2 3 4 5 6 2 2 3 1 2
11 10 9 8 7 7 8 8 6 6 6 6 7 9 10 13 15 19 13 5 8 5 8 4 5 4 2 4 2 2 2 1 2 4 2 3 4 5 7 2 3 4 1 3 5 1 4
7 10 10 9 8 8 8 7 7 7 7 8 8 9 10 12 14 18 5 6 2 3 8 2 1 3 0 1 1 2 2 2 2 3 2 4 4 2 7 5 3 2 1 5 2 1 3
6 6 6 3 2 2 5 8 8 6 6 7 9 10 11 14 15 4 4 4 1 1 1 4 1 1 0 1 2 4 1 2 3 3 4 3 4 3 3 2 2 2 4 4 4 6 3
6 6 8 8 6 6 5 1 6 8 5 5 6 8 10 18 3 5 2 4 2 1 5 8 1 0 0 1 2 1 2 1 2 4 5 2 3 3 1 3 5 2 1 2 2 6 3
5 6 6 7 7 6 6 8 8 6 2 3 6 4 6 7 5 3 2 5 3 2 5 4 2 0 1 1 2 1 1 2 1 4 6 6 8 5 3 3 4 4 3 3 2 1 5
7 8 6 6 6 4 5 7 12 11 10 8 5 5 2 1 1 5 1 0 2 7 8 3 2 1 1 3 2 2 1 1 0 0 1 2 2 5 7 4 5 5 3 4 5 4 3
6 5 7 4 5 5 7 8 10 12 9 8 6 2 1 2 2 2 2 2 5 5 3 3 3 4 4 5 4 5 5 4 6 4 4 1 4 1 3 4 3 3 6 4 5 2 7
7 4 2 5 1 4 9 9 9 9 8 7 7 3 5 5 1 1 3 4 7 7 6 2 4 5 4 5 5 7 3 3 7 2 3 6 6 9 5 6 8 6 8 7 7 4 5
9 6 3 1 4 6 4 6 6 7 7 9 6 1 3 3 7 1 3 8 8 8 5 4 1 4 5 5 5 5 8 5 8 15 10 7 7 3 3 1 5 5 5 3 2 1 3
10 7 5 4 2 2 5 3 3 5 6 8 1 1 4 6 7 3 7 14 8 7 1 3 6 7 6 5 7 7 8 7 5 13 5 6 3 3 2 2 1 3 2 4 2 3 7
13 11 9 7 7 4 2 1 4 1 4 6 1 2 3 5 4 5 13 9 16 12 5 7 7 7 5 4 7 6 6 5 8 3 8 5 5 3 5 9 12 3 3 3 3 5 5
11 14 14 13 11 9 7 4 1 1 4 2 1 3 2 5 8 4 15 5 11 8 18 19 13 12 7 9 12 10 11 9 4 6 9 7 4 6 14 4 8 6 12 12 7 8 5
9 8 11 14 12 11 11 6 4 0 2 1 1 2 2 1 3 9 3 9 19 12 14 8 16 15 19 19 16 18 22 14 8 10 10 7 2 4 6 5 3 9 8 8 0 3 16
10 9 9 10 12 12 12 8 6 2 5 2 1 1 2 2 3 2 5 4 2 6 3 6 5 4 9 19 21 18 23 9 1 14 6 7 10 12 18 8 7 8 10 19 19 10 14
13 11 9 9 10 12 11 11 8 6 9 3 1 1 1 1 1 2 0 2 4 6 6 8 3 6 4 7 13 25 19 19 5 6 3 11 13 20 28 28 9 8 11 23 27 30 19
14 13 12 10 10 9 11 12 12 10 11 3 2 2 2 1 2 1 2 1 3 2 2 3 2 5 3 3 3 6 5 3 3 6 4 4 6 10 27 21 12 15 14 8 24 26 26
15 13 12 11 10 10 9 12 15 15 9 2 2 1 1 3 2 3 4 4 2 1 4 2 2 4 4 1 8 9 7 5 3 3 3 4 4 2 8 3 5 9 21 22 16 15 14
14 13 12 11 11 11 10 12 18 18 14 3 2 2 2 3 5 5 4 7 7 6 2 4 3 2 1 3 8 6 8 11 11 10 9 3 2 3 3 3 7 3 6 9 18 20 19
13 12 13 13 11 11 11 12 16 20 22 3 3 4 3 3 5 6 9 6 6 8 3 4 6 5 2 2 3 5 3 4 10 15 14 15 6 4 4 5 7 7 5 4 7 6 9
14 16 15 13 11 11 10 11 12 19 21 5 3 4 2 2 7 5 4 5 4 3 1 4 3 4 4 2 2 3 3 3 5 5 4 13 12 7 3 5 7 2 3 3 3 9 7
13 15 15 14 11 10 10 12 12 13 18 9 3 7 3 3 4 5 4 6 5 3 2 1 2 3 7 4 5 5 5 4 5 3 3 3 5 14 13 11 4 6 9 2 4 7 6
15 15 16 15 13 11 11 11 11 12 15 11 1 11 7 5 3 5 5 4 3 4 4 3 1 2 2 3 3 4 3 2 2 5 5 5 4 6 7 8 8 7 3 6 3 2 1
15 15 15 14 12 10 10 11 12 14 15 13 2 4 5 2 1 2 4 4 4 5 5 3 3 3 4 1 2 2 3 1 5 5 1 5 2 3 4 3 4 8 5 6 5 4 4
Wind_Direction
269 226 38 25 26 17 12 12 10 5 2 6 3 2 358 348 344 343 339 336 335 336 324 322 343 350 342 93 18 348 340 329 331 320 305 354 75 38 112 127 51 99 148 160 171 206 226
282 287 287 306 6 8 358 1 357 358 359 357 358 357 351 345 344 341 335 334 330 330 317 319 329 329 38 351 302 352 337 344 357 356 11 25 120 136 102 80 97 145 146 147 172 246 234
258 271 287 283 310 334 349 345 347 348 352 354 355 353 349 347 342 337 332 331 324 318 303 304 312 315 72 205 344 335 353 314 312 356 354 344 350 21 145 120 175 135 126 117 229 220 288
259 274 269 278 272 287 311 325 332 339 348 352 351 350 349 343 337 333 326 324 316 300 286 291 317 310 166 157 311 351 353 329 332 328 351 316 339 34 65 92 64 175 94 73 210 306 237
243 248 267 274 284 279 278 297 317 333 337 343 347 346 343 338 335 329 324 320 308 277 276 300 340 66 297 329 73 297 77 8 316 311 305 299 343 131 63 99 27 345 218 220 278 186 248
235 237 244 253 258 277 281 272 282 301 318 332 338 341 339 336 333 327 324 316 356 343 231 269 275 28 238 184 287 328 257 110 73 345 338 345 35 70 24 88 202 199 209 272 241 241 246
240 237 235 234 247 259 272 284 286 291 302 317 329 336 337 333 333 328 339 12 13 5 35 267 283 277 51 324 86 226 128 92 136 90 313 328 62 201 212 116 67 94 82 267 284 350 288
251 248 239 232 236 242 255 258 272 285 297 311 323 332 333 329 329 328 355 67 140 190 310 331 292 308 127 44 313 207 153 172 162 167 137 12 230 155 114 96 106 112 209 272 289 39 357
113 98 91 90 113 61 281 261 262 263 291 310 322 331 333 325 321 16 85 109 169 177 254 297 185 307 186 158 269 190 175 179 195 185 167 185 311 127 100 121 129 233 206 242 230 331 311
84 78 92 82 51 38 69 105 262 275 271 294 315 326 341 323 41 329 78 167 190 155 51 281 293 174 238 254 286 63 5 280 231 183 157 188 171 159 152 219 145 264 118 68 28 48 255
36 57 55 75 84 54 45 70 74 66 19 333 328 311 340 7 305 344 201 173 192 76 16 251 176 354 51 195 166 207 337 20 210 200 102 233 171 178 197 246 157 221 82 74 49 116 23
21 41 59 61 65 73 73 83 85 70 61 56 41 8 43 310 222 281 146 141 54 51 251 318 101 125 100 208 220 126 307 335 294 111 49 200 180 186 181 108 95 136 70 51 48 75 345
347 7 21 65 73 72 75 83 82 84 52 27 15 358 217 315 217 344 16 31 33 163 252 228 211 174 207 199 218 179 171 182 175 109 237 194 230 146 152 108 36 114 88 322 342 343 230
301 319 341 350 359 88 87 87 74 59 44 10 332 214 227 234 47 24 39 38 207 224 232 177 154 171 209 170 231 183 190 242 234 193 118 175 299 173 187 195 179 179 168 167 222 219 253
281 280 226 281 47 52 75 82 66 46 24 350 312 219 275 233 219 115 147 214 211 197 235 169 121 175 214 238 190 145 207 215 214 179 185 180 261 104 123 108 134 192 196 196 119 297 51
251 283 249 207 114 51 43 65 52 37 18 357 15 256 217 329 149 148 211 230 204 220 280 27 208 193 206 197 176 183 190 209 225 193 192 209 256 203 152 82 39 155 183 74 354 259 257
245 231 247 228 199 213 200 27 3 17 1 353 65 237 2 328 146 215 222 218 232 240 204 214 212 242 262 244 202 196 224 266 199 194 180 163 171 217 116 206 177 152 203 220 174 169 213
238 234 221 232 217 213 207 203 350 20 349 52 52 230 11 321 205 220 230 203 224 234 223 244 260 260 230 262 264 253 211 211 170 158 169 203 177 212 209 238 189 197 191 174 189 235 233
242 236 238 232 222 208 220 206 217 263 116 43 166 307 10 359 237 225 263 226 227 224 215 205 227 220 233 245 259 249 255 239 201 169 172 170 195 281 307 9 343 221 199 204 243 101 228
226 233 240 246 232 224 220 214 221 226 145 89 113 276 314 343 66 11 359 336 273 26 32 358 303 314 263 247 240 255 253 254 319 229 195 180 182 207 237 215 137 191 201 207 207 225 240
224 222 233 240 241 229 222 202 207 174 146 93 30 151 70 333 5 12 277 339 336 342 22 19 45 22 340 289 259 249 270 259 109 9 293 184 225 232 243 248 236 234 209 208 208 219 212
230 227 227 236 242 242 220 207 194 169 165 103 165 183 148 207 173 171 129 349 8 331 312 2 324 353 323 301 328 320 354 349 11 351 334 325 251 228 250 254 247 263 247 223 223 230 238
237 229 228 235 237 242 224 208 193 178 164 145 156 156 119 177 189 181 206 189 199 84 197 229 60 327 332 4 343 317 234 264 264 301 338 299 312 232 255 205 200 257 246 240 232 237 235
232 234 232 228 238 240 235 219 200 189 186 145 156 124 163 227 201 207 212 209 213 206 234 236 216 220 154 338 298 249 239 244 243 232 199 250 285 282 284 92 231 290 320 227 224 234 227
230 249 241 238 234 239 239 232 211 204 198 144 155 135 162 229 213 231 241 230 229 239 221 216 206 210 140 2 305 293 238 246 238 234 223 208 213 239 245 229 325 298 275 161 169 255 222
233 220 235 234 240 239 240 244 230 212 210 190 162 119 149 160 225 213 200 173 191 202 204 231 242 152 154 180 224 261 256 282 283 297 214 215 222 245 215 236 226 293 316 296 103 255 212
235 239 238 236 227 233 235 238 242 221 213 201 180 150 128 204 240 182 188 198 161 173 232 217 141 192 188 206 213 213 231 240 241 244 217 190 212 226 242 256 239 237 245 273 134 247 228
242 238 239 235 232 236 241 245 239 232 221 208 219 187 169 195 212 203 201 164 147 160 174 159 354 224 207 248 258 254 253 239 263 353 306 232 223 217 229 244 260 341 17 213 295 355 195
242 240 229 228 227 226 239 246 244 241 226 191 178 154 105 132 283 304 280 274 195 154 140 198 210 150 189 175 307 343 305 275 265 269 279 256 222 312 264 258 322 303 249 272 293 284 282